Terug naar catalogus

STRELA 3

ActiefMilitairPO
NORAD 37153·PAYLOAD·🇷🇺 Russia

Gelanceerd Sep 8, 2010 vanaf Plesetsk Cosmodrome

Loading…

Volgende Passages (komende 24 uur)

TLE

VersSource: Space-Track

Epoch: Sep 14, 2026, 13:41 UTC

1 37153U 10043B   26257.57019412 -.00000037  00000-0 -34980-3 0  9997
2 37153  82.4617  22.7216 0006802 245.5108 114.5262 12.40793679725452

Volg STRELA 3 in realtime met AllMySat

Download on the App Store